| time (UTC) | temp F | wind direction | speed MPH | gust MPH | rain 1hr in | rain 24hr in | rain mn in | humidity % | barometer mb |
| 20260906191017 | 73 | 355 | 2.0 | 13.0 | 0.00 | 0.00 | 0.00 | 60 | 1016.7 |
| 20260906190520 | 74 | 13 | 6.0 | 13.0 | 0.00 | 0.00 | 0.00 | 57 | 1016.7 |
| 20260906185516 | 74 | 9 | 3.0 | 11.0 | 0.00 | 0.00 | 0.00 | 61 | 1016.6 |
| 20260906185017 | 73 | 350 | 4.0 | 11.0 | 0.00 | 0.00 | 0.00 | 60 | 1016.6 |
| 20260906184537 | 72 | 18 | 5.0 | 11.0 | 0.00 | 0.00 | 0.00 | 63 | 1016.6 |
| 20260906184016 | 73 | 47 | 5.0 | 11.0 | 0.00 | 0.00 | 0.00 | 59 | 1016.5 |
| 20260906183516 | 73 | 27 | 3.0 | 13.0 | 0.00 | 0.00 | 0.00 | 64 | 1016.6 |
| 20260906183033 | 73 | 10 | 4.0 | 13.0 | 0.00 | 0.00 | 0.00 | 64 | 1016.6 |
| 20260906182521 | 72 | 77 | 3.0 | 9.0 | 0.00 | 0.00 | 0.00 | 64 | 1016.7 |
| 20260906182020 | 71 | 252 | 2.0 | 14.0 | 0.00 | 0.00 | 0.00 | 69 | 1016.7 |
| 20260906181537 | 71 | 51 | 3.0 | 14.0 | 0.00 | 0.00 | 0.00 | 65 | 1016.8 |
| 20260906181018 | 72 | 61 | 7.0 | 13.0 | 0.00 | 0.00 | 0.00 | 63 | 1017.0 |
| 20260906180521 | 72 | 5 | 4.0 | 10.0 | 0.00 | 0.00 | 0.00 | 62 | 1016.9 |
| 20260906175519 | 72 | 38 | 3.0 | 5.0 | 0.00 | 0.00 | 0.00 | 66 | 1016.9 |
| 20260906175016 | 72 | 73 | 2.0 | 9.0 | 0.00 | 0.00 | 0.00 | 65 | 1016.9 |
| 20260906174535 | 72 | 39 | 3.0 | 11.0 | 0.00 | 0.00 | 0.00 | 68 | 1016.8 |
| 20260906174018 | 72 | 79 | 4.0 | 11.0 | 0.00 | 0.00 | 0.00 | 63 | 1016.8 |
| 20260906173518 | 72 | 350 | 3.0 | 10.0 | 0.00 | 0.00 | 0.00 | 71 | 1016.8 |
| 20260906173035 | 72 | 328 | 5.0 | 10.0 | 0.00 | 0.00 | 0.00 | 68 | 1016.8 |
| 20260906172516 | 71 | 13 | 4.0 | 9.0 | 0.00 | 0.00 | 0.00 | 67 | 1016.9 |
| 20260906172016 | 71 | 355 | 2.0 | 11.0 | 0.00 | 0.00 | 0.00 | 68 | 1017.0 |
| 20260906171535 | 72 | 5 | 3.0 | 11.0 | 0.00 | 0.00 | 0.00 | 67 | 1016.9 |
| 20260906171018 | 72 | 323 | 2.0 | 10.0 | 0.00 | 0.00 | 0.00 | 67 | 1017.0 |
| 20260906170520 | 71 | 329 | 3.0 | 8.0 | 0.00 | 0.00 | 0.00 | 69 | 1017.0 |
| 20260906170106 | 70 | 36 | 3.0 | 8.0 | 0.00 | 0.00 | 0.00 | 68 | 1017.1 |
| 20260906165518 | 70 | 329 | 4.0 | 7.0 | 0.00 | 0.00 | 0.00 | 71 | 1017.2 |
| 20260906165020 | 70 | 328 | 2.0 | 6.0 | 0.00 | 0.00 | 0.00 | 70 | 1017.2 |
| 20260906164017 | 69 | 346 | 1.0 | 10.0 | 0.00 | 0.00 | 0.00 | 71 | 1017.2 |
| 20260906163519 | 70 | 9 | 2.0 | 10.0 | 0.00 | 0.00 | 0.00 | 72 | 1017.2 |
| 20260906163035 | 70 | 115 | 4.0 | 10.0 | 0.00 | 0.00 | 0.00 | 69 | 1017.2 |
| 20260906162520 | 69 | 284 | 3.0 | 7.0 | 0.00 | 0.00 | 0.00 | 75 | 1017.3 |
| 20260906162016 | 68 | 32 | 3.0 | 9.0 | 0.00 | 0.00 | 0.00 | 75 | 1017.4 |
| 20260906161536 | 68 | 309 | 3.0 | 9.0 | 0.00 | 0.00 | 0.00 | 77 | 1017.5 |
| 20260906161018 | 69 | 296 | 3.0 | 10.0 | 0.00 | 0.00 | 0.00 | 73 | 1017.5 |
| 20260906160520 | 69 | 350 | 6.0 | 10.0 | 0.00 | 0.00 | 0.00 | 73 | 1017.5 |
| 20260906155523 | 69 | 51 | 3.0 | 11.0 | 0.00 | 0.00 | 0.00 | 76 | 1017.6 |
| 20260906155019 | 68 | 292 | 5.0 | 9.0 | 0.00 | 0.00 | 0.00 | 74 | 1017.7 |
| 20260906154535 | 68 | 355 | 4.0 | 11.0 | 0.00 | 0.00 | 0.00 | 78 | 1017.7 |
| 20260906154018 | 68 | 360 | 5.0 | 11.0 | 0.00 | 0.00 | 0.00 | 77 | 1017.7 |
| 20260906153520 | 68 | 61 | 3.0 | 8.0 | 0.00 | 0.00 | 0.00 | 76 | 1017.7 |
| 20260906153039 | 67 | 53 | 2.0 | 8.0 | 0.00 | 0.00 | 0.00 | 79 | 1017.7 |
| 20260906152519 | 66 | 57 | 2.0 | 8.0 | 0.00 | 0.00 | 0.00 | 80 | 1017.9 |
| 20260906152020 | 65 | 26 | 2.0 | 8.0 | 0.00 | 0.00 | 0.00 | 79 | 1017.8 |
| 20260906151018 | 65 | 0 | 1.0 | 9.0 | 0.00 | 0.00 | 0.00 | 82 | 1017.8 |
| 20260906150519 | 65 | 24 | 3.0 | 9.0 | 0.00 | 0.00 | 0.00 | 82 | 1017.8 |
| 20260906145516 | 65 | 15 | 4.0 | 11.0 | 0.00 | 0.00 | 0.00 | 80 | 1017.7 |
| 20260906145019 | 65 | 36 | 2.0 | 11.0 | 0.00 | 0.00 | 0.00 | 81 | 1017.6 |
| 20260906144537 | 64 | 25 | 6.0 | 11.0 | 0.00 | 0.00 | 0.00 | 81 | 1017.6 |
| 20260906144018 | 64 | 0 | 1.0 | 9.0 | 0.00 | 0.00 | 0.00 | 84 | 1017.5 |
| 20260906143516 | 64 | 28 | 3.0 | 8.0 | 0.00 | 0.00 | 0.00 | 83 | 1017.6 |
| 20260906143036 | 64 | 343 | 1.0 | 8.0 | 0.00 | 0.00 | 0.00 | 83 | 1017.5 |
| 20260906142520 | 64 | 27 | 2.0 | 9.0 | 0.00 | 0.00 | 0.00 | 84 | 1017.5 |
| 20260906142020 | 64 | 25 | 1.0 | 9.0 | 0.00 | 0.00 | 0.00 | 85 | 1017.4 |
| 20260906141537 | 63 | 33 | 1.0 | 8.0 | 0.00 | 0.00 | 0.00 | 85 | 1017.4 |
| 20260906141021 | 63 | 350 | 2.0 | 8.0 | 0.00 | 0.00 | 0.00 | 85 | 1017.3 |
| 20260906140517 | 63 | 48 | 1.0 | 7.0 | 0.00 | 0.00 | 0.00 | 85 | 1017.4 |
| 20260906135517 | 63 | 355 | 1.0 | 6.0 | 0.00 | 0.00 | 0.00 | 86 | 1017.3 |
| 20260906135018 | 63 | 346 | 2.0 | 6.0 | 0.00 | 0.00 | 0.00 | 86 | 1017.3 |
| 20260906134021 | 63 | 57 | 0.0 | 3.0 | 0.00 | 0.00 | 0.00 | 88 | 1017.2 |
| 20260906132519 | 62 | 16 | 1.0 | 5.0 | 0.00 | 0.00 | 0.00 | 89 | 1017.2 |
| 20260906132018 | 62 | 42 | 0.0 | 3.0 | 0.00 | 0.00 | 0.00 | 90 | 1017.2 |
| 20260906131020 | 62 | 346 | 1.0 | 5.0 | 0.00 | 0.00 | 0.00 | 90 | 1017.2 |
| 20260906130519 | 62 | 49 | 1.0 | 4.0 | 0.00 | 0.00 | 0.00 | 91 | 1017.2 |
| 20260906125520 | 62 | 310 | 2.0 | 5.0 | 0.00 | 0.00 | 0.00 | 92 | 1017.2 |
| 20260906125020 | 61 | 344 | 2.0 | 5.0 | 0.00 | 0.00 | 0.00 | 93 | 1017.0 |
| 20260906124019 | 61 | 360 | 2.0 | 8.0 | 0.00 | 0.00 | 0.00 | 94 | 1017.0 |
| 20260906123517 | 60 | 331 | 1.0 | 8.0 | 0.00 | 0.00 | 0.00 | 94 | 1017.0 |
| 20260906122021 | 60 | 340 | 2.0 | 6.0 | 0.00 | 0.00 | 0.00 | 95 | 1017.1 |
| 20260906120518 | 60 | 0 | 0.0 | 3.0 | 0.00 | 0.00 | 0.00 | 96 | 1016.7 |
| 20260906115521 | 60 | 0 | 0.0 | 2.0 | 0.00 | 0.00 | 0.00 | 96 | 1016.6 |
| 20260906115021 | 60 | 0 | 0.0 | 2.0 | 0.00 | 0.00 | 0.00 | 96 | 1016.7 |
| 20260906114016 | 60 | 0 | 0.0 | 2.0 | 0.00 | 0.00 | 0.00 | 96 | 1016.5 |
| 20260906112019 | 60 | 0 | 0.0 | 2.0 | 0.00 | 0.00 | 0.00 | 96 | 1016.5 |
| 20260906111017 | 59 | 0 | 0.0 | 2.0 | 0.00 | 0.00 | 0.00 | 96 | 1016.3 |
| 20260906110518 | 59 | 0 | 0.0 | 1.0 | 0.00 | 0.00 | 0.00 | 96 | 1016.3 |
| 20260906105518 | 59 | 0 | 0.0 | 3.0 | 0.00 | 0.00 | 0.00 | 96 | 1016.2 |
| 20260906105019 | 59 | 0 | 0.0 | 3.0 | 0.00 | 0.00 | 0.00 | 96 | 1016.2 |
| 20260906104535 | 59 | 0 | 0.0 | 3.0 | 0.00 | 0.00 | 0.00 | 96 | 1016.1 |
| 20260906104016 | 59 | 0 | 0.0 | 1.0 | 0.00 | 0.00 | 0.00 | 96 | 1016.2 |
| 20260906103518 | 59 | 0 | 0.0 | 1.0 | 0.00 | 0.00 | 0.00 | 96 | 1016.1 |
| 20260906103034 | 59 | 0 | 0.0 | 2.0 | 0.00 | 0.00 | 0.00 | 96 | 1015.9 |
| 20260906102520 | 59 | 0 | 0.0 | 3.0 | 0.00 | 0.00 | 0.00 | 96 | 1015.9 |
| 20260906102017 | 59 | 14 | 0.0 | 3.0 | 0.00 | 0.00 | 0.00 | 96 | 1015.9 |
| 20260906101535 | 59 | 27 | 0.0 | 4.0 | 0.00 | 0.00 | 0.00 | 96 | 1015.9 |
| 20260906101018 | 59 | 0 | 1.0 | 4.0 | 0.00 | 0.00 | 0.00 | 96 | 1015.7 |
| 20260906100520 | 59 | 0 | 0.0 | 3.0 | 0.00 | 0.00 | 0.00 | 96 | 1015.6 |
| 20260906095518 | 59 | 0 | 0.0 | 4.0 | 0.00 | 0.00 | 0.00 | 96 | 1015.5 |
| 20260906095021 | 59 | 0 | 0.0 | 4.0 | 0.00 | 0.00 | 0.00 | 96 | 1015.5 |
| 20260906094016 | 59 | 40 | 0.0 | 3.0 | 0.00 | 0.00 | 0.00 | 96 | 1015.4 |
| 20260906093518 | 59 | 0 | 0.0 | 3.0 | 0.00 | 0.00 | 0.00 | 96 | 1015.4 |
| 20260906092520 | 60 | 0 | 0.0 | 1.0 | 0.00 | 0.00 | 0.00 | 97 | 1015.3 |
| 20260906092019 | 60 | 0 | 0.0 | 1.0 | 0.00 | 0.00 | 0.00 | 97 | 1015.2 |
| 20260906091019 | 60 | 0 | 0.0 | 0.0 | 0.00 | 0.00 | 0.00 | 97 | 1015.2 |
| 20260906090518 | 60 | 0 | 0.0 | 0.0 | 0.00 | 0.00 | 0.00 | 97 | 1015.2 |
| 20260906090038 | 59 | 0 | 0.0 | 1.0 | 0.00 | 0.00 | 0.00 | 97 | 1015.2 |
| 20260906085520 | 59 | 0 | 0.0 | 1.0 | 0.00 | 0.00 | 0.00 | 97 | 1015.2 |
| 20260906085017 | 59 | 0 | 0.0 | 2.0 | 0.00 | 0.00 | 0.00 | 97 | 1015.2 |
| 20260906084535 | 59 | 0 | 0.0 | 3.0 | 0.00 | 0.00 | 0.00 | 97 | 1015.1 |
| 20260906084021 | 59 | 38 | 0.0 | 3.0 | 0.00 | 0.00 | 0.00 | 97 | 1015.1 |
| 20260906083520 | 59 | 0 | 0.0 | 4.0 | 0.00 | 0.00 | 0.00 | 97 | 1015.1 |
| 20260906082519 | 59 | 40 | 0.0 | 4.0 | 0.00 | 0.00 | 0.00 | 97 | 1015.1 |
| 20260906082017 | 59 | 0 | 0.0 | 1.0 | 0.00 | 0.00 | 0.00 | 97 | 1015.0 |
| 20260906081016 | 59 | 0 | 0.0 | 4.0 | 0.00 | 0.00 | 0.00 | 97 | 1015.0 |
| 20260906080518 | 59 | 42 | 1.0 | 4.0 | 0.00 | 0.00 | 0.00 | 97 | 1014.9 |
| 20260906080038 | 59 | 0 | 0.0 | 1.0 | 0.00 | 0.00 | 0.00 | 97 | 1015.0 |
| 20260906075518 | 59 | 0 | 0.0 | 0.0 | 0.00 | 0.00 | 0.00 | 97 | 1014.9 |
| 20260906075017 | 58 | 0 | 0.0 | 0.0 | 0.00 | 0.00 | 0.00 | 97 | 1014.9 |
| 20260906074545 | 58 | 0 | 0.0 | 0.0 | 0.00 | 0.00 | 0.00 | 97 | 1014.8 |
| 20260906074020 | 58 | 0 | 0.0 | 0.0 | 0.00 | 0.00 | 0.00 | 97 | 1015.0 |
| 20260906073520 | 58 | 0 | 0.0 | 0.0 | 0.00 | 0.00 | 0.00 | 97 | 1014.8 |
| 20260906072520 | 57 | 0 | 0.0 | 0.0 | 0.00 | 0.00 | 0.00 | 96 | 1014.8 |
| 20260906072019 | 57 | 0 | 0.0 | 0.0 | 0.00 | 0.00 | 0.00 | 96 | 1014.7 |
| 20260906071018 | 57 | 0 | 0.0 | 0.0 | 0.00 | 0.00 | 0.00 | 96 | 1014.9 |
| 20260906070516 | 57 | 0 | 0.0 | 0.0 | 0.00 | 0.00 | 0.00 | 96 | 1014.8 |
| 20260906070035 | 57 | 0 | 0.0 | 0.0 | 0.00 | 0.00 | 0.00 | 96 | 1014.8 |
| 20260906065518 | 58 | 0 | 0.0 | 0.0 | 0.00 | 0.00 | 0.00 | 96 | 1014.7 |
| 20260906065019 | 58 | 0 | 0.0 | 0.0 | 0.00 | 0.00 | 0.00 | 96 | 1014.8 |
| 20260906064019 | 58 | 0 | 0.0 | 0.0 | 0.00 | 0.00 | 0.00 | 96 | 1014.6 |
| 20260906063518 | 58 | 0 | 0.0 | 0.0 | 0.00 | 0.00 | 0.00 | 96 | 1014.5 |
| 20260906062518 | 59 | 0 | 0.0 | 0.0 | 0.00 | 0.00 | 0.00 | 96 | 1014.6 |
| 20260906062018 | 59 | 0 | 0.0 | 0.0 | 0.00 | 0.00 | 0.00 | 96 | 1014.6 |
| 20260906061020 | 59 | 0 | 0.0 | 1.0 | 0.00 | 0.00 | 0.00 | 97 | 1014.5 |
| 20260906060520 | 59 | 0 | 0.0 | 1.0 | 0.00 | 0.00 | 0.00 | 97 | 1014.5 |
| 20260906055517 | 59 | 0 | 0.0 | 3.0 | 0.00 | 0.00 | 0.00 | 96 | 1014.6 |
| 20260906055017 | 59 | 336 | 1.0 | 3.0 | 0.00 | 0.00 | 0.00 | 96 | 1014.7 |
| 20260906054542 | 59 | 336 | 0.0 | 2.0 | 0.00 | 0.00 | 0.00 | 96 | 1014.7 |
| 20260906054016 | 59 | 336 | 1.0 | 2.0 | 0.00 | 0.00 | 0.00 | 96 | 1014.8 |
| 20260906053521 | 59 | 336 | 0.0 | 2.0 | 0.00 | 0.00 | 0.00 | 96 | 1014.9 |
| 20260906051021 | 60 | 0 | 0.0 | 0.0 | 0.00 | 0.00 | 0.00 | 97 | 1015.3 |
| 20260906050520 | 60 | 0 | 0.0 | 0.0 | 0.00 | 0.00 | 0.00 | 97 | 1015.3 |
| 20260906045519 | 59 | 0 | 0.0 | 0.0 | 0.00 | 0.00 | 0.00 | 96 | 1015.4 |
| 20260906045019 | 59 | 0 | 0.0 | 1.0 | 0.00 | 0.00 | 0.00 | 96 | 1015.4 |
| 20260906044018 | 59 | 336 | 0.0 | 1.0 | 0.00 | 0.00 | 0.00 | 96 | 1015.3 |
| 20260906043518 | 59 | 0 | 0.0 | 0.0 | 0.00 | 0.00 | 0.00 | 96 | 1015.2 |
| 20260906042518 | 59 | 0 | 0.0 | 0.0 | 0.00 | 0.00 | 0.00 | 96 | 1015.1 |
| 20260906042020 | 59 | 0 | 0.0 | 2.0 | 0.00 | 0.00 | 0.00 | 96 | 1015.1 |
| 20260906041020 | 59 | 336 | 0.0 | 2.0 | 0.00 | 0.00 | 0.00 | 95 | 1015.0 |
| 20260906040516 | 59 | 0 | 0.0 | 0.0 | 0.00 | 0.00 | 0.00 | 95 | 1015.1 |
| 20260906035518 | 59 | 0 | 0.0 | 0.0 | 0.00 | 0.00 | 0.00 | 95 | 1015.0 |
| 20260906035018 | 59 | 0 | 0.0 | 0.0 | 0.00 | 0.00 | 0.00 | 95 | 1014.9 |
| 20260906034020 | 59 | 0 | 0.0 | 0.0 | 0.00 | 0.00 | 0.00 | 94 | 1014.8 |
| 20260906033521 | 59 | 0 | 0.0 | 0.0 | 0.00 | 0.00 | 0.00 | 94 | 1014.9 |
| 20260906032520 | 59 | 0 | 0.0 | 0.0 | 0.00 | 0.00 | 0.00 | 94 | 1014.7 |
| 20260906032021 | 59 | 0 | 0.0 | 0.0 | 0.00 | 0.00 | 0.00 | 94 | 1014.7 |
| 20260906031019 | 60 | 0 | 0.0 | 0.0 | 0.00 | 0.00 | 0.00 | 94 | 1014.7 |
| 20260906030520 | 59 | 0 | 0.0 | 1.0 | 0.00 | 0.00 | 0.00 | 93 | 1014.6 |
| 20260906030039 | 60 | 0 | 0.0 | 1.0 | 0.00 | 0.00 | 0.00 | 93 | 1014.5 |
| 20260906025516 | 60 | 0 | 0.0 | 1.0 | 0.00 | 0.00 | 0.00 | 93 | 1014.5 |
| 20260906024020 | 60 | 0 | 0.0 | 0.0 | 0.00 | 0.00 | 0.00 | 92 | 1014.6 |
| 20260906023521 | 60 | 0 | 0.0 | 0.0 | 0.00 | 0.00 | 0.00 | 92 | 1014.5 |
| 20260906022520 | 61 | 0 | 0.0 | 0.0 | 0.00 | 0.00 | 0.00 | 91 | 1014.5 |
| 20260906022023 | 61 | 0 | 0.0 | 0.0 | 0.00 | 0.00 | 0.00 | 91 | 1014.5 |
| 20260906021022 | 61 | 0 | 0.0 | 0.0 | 0.00 | 0.00 | 0.00 | 90 | 1014.4 |
| 20260906020517 | 62 | 0 | 0.0 | 1.0 | 0.00 | 0.00 | 0.00 | 90 | 1014.5 |
| 20260906015516 | 62 | 0 | 0.0 | 1.0 | 0.00 | 0.00 | 0.00 | 89 | 1014.4 |
| 20260906014020 | 62 | 0 | 0.0 | 1.0 | 0.00 | 0.00 | 0.00 | 88 | 1014.3 |
| 20260906013520 | 63 | 0 | 0.0 | 1.0 | 0.00 | 0.00 | 0.00 | 88 | 1014.2 |
| 20260906012520 | 63 | 0 | 0.0 | 0.0 | 0.00 | 0.00 | 0.00 | 88 | 1014.1 |
| 20260906012024 | 63 | 0 | 0.0 | 1.0 | 0.00 | 0.00 | 0.00 | 88 | 1014.2 |
| 20260906010520 | 63 | 0 | 0.0 | 3.0 | 0.00 | 0.00 | 0.00 | 88 | 1014.4 |
| 20260906005520 | 63 | 0 | 0.0 | 1.0 | 0.00 | 0.00 | 0.00 | 87 | 1014.3 |
| 20260906005018 | 63 | 0 | 0.0 | 3.0 | 0.00 | 0.00 | 0.00 | 87 | 1014.2 |
| 20260906004022 | 63 | 0 | 0.0 | 2.0 | 0.00 | 0.00 | 0.00 | 87 | 1013.9 |
| 20260906003517 | 64 | 0 | 0.0 | 2.0 | 0.00 | 0.00 | 0.00 | 86 | 1013.9 |
| 20260906003038 | 64 | 0 | 0.0 | 5.0 | 0.00 | 0.00 | 0.00 | 87 | 1013.9 |
| 20260906002517 | 64 | 0 | 0.0 | 5.0 | 0.00 | 0.00 | 0.00 | 87 | 1013.9 |
| 20260906002020 | 63 | 15 | 0.0 | 5.0 | 0.00 | 0.00 | 0.00 | 88 | 1013.9 |
| 20260906001018 | 63 | 0 | 0.0 | 0.0 | 0.00 | 0.00 | 0.00 | 88 | 1014.0 |
| 20260906000520 | 63 | 0 | 0.0 | 0.0 | 0.00 | 0.00 | 0.00 | 87 | 1013.9 |
| 20260905235518 | 64 | 0 | 0.0 | 1.0 | 0.00 | 0.00 | 0.00 | 87 | 1013.8 |
| 20260905235021 | 64 | 0 | 0.0 | 2.0 | 0.00 | 0.00 | 0.00 | 86 | 1013.8 |
| 20260905234019 | 64 | 0 | 1.0 | 2.0 | 0.00 | 0.00 | 0.00 | 86 | 1013.7 |
| 20260905233517 | 65 | 346 | 0.0 | 3.0 | 0.00 | 0.00 | 0.00 | 85 | 1013.8 |
| 20260905232520 | 65 | 342 | 1.0 | 3.0 | 0.00 | 0.00 | 0.00 | 85 | 1013.7 |
| 20260905231020 | 66 | 0 | 0.0 | 2.0 | 0.00 | 0.00 | 0.00 | 82 | 1013.6 |
| 20260905230518 | 67 | 342 | 0.0 | 3.0 | 0.00 | 0.00 | 0.00 | 81 | 1013.6 |
| 20260905225523 | 67 | 19 | 1.0 | 4.0 | 0.00 | 0.00 | 0.00 | 81 | 1013.7 |
| 20260905225016 | 67 | 334 | 1.0 | 4.0 | 0.00 | 0.00 | 0.00 | 81 | 1013.6 |
| 20260905224021 | 67 | 327 | 1.0 | 3.0 | 0.00 | 0.00 | 0.00 | 80 | 1013.6 |
| 20260905223519 | 68 | 327 | 1.0 | 3.0 | 0.00 | 0.00 | 0.00 | 80 | 1013.6 |
| 20260905222517 | 68 | 260 | 1.0 | 5.0 | 0.00 | 0.00 | 0.00 | 78 | 1013.7 |
| 20260905222018 | 69 | 0 | 1.0 | 5.0 | 0.00 | 0.00 | 0.00 | 78 | 1013.6 |
| 20260905221534 | 69 | 34 | 1.0 | 5.0 | 0.00 | 0.00 | 0.00 | 77 | 1013.6 |
| 20260905221020 | 69 | 348 | 0.0 | 4.0 | 0.00 | 0.00 | 0.00 | 78 | 1013.4 |
| 20260905220518 | 69 | 0 | 1.0 | 4.0 | 0.00 | 0.00 | 0.00 | 76 | 1013.3 |
| 20260905215520 | 70 | 324 | 2.0 | 6.0 | 0.00 | 0.00 | 0.00 | 74 | 1013.3 |
| 20260905215019 | 71 | 324 | 2.0 | 6.0 | 0.00 | 0.00 | 0.00 | 73 | 1013.3 |
| 20260905214536 | 72 | 332 | 3.0 | 8.0 | 0.00 | 0.00 | 0.00 | 71 | 1013.2 |
| 20260905214018 | 71 | 350 | 2.0 | 8.0 | 0.00 | 0.00 | 0.00 | 73 | 1013.2 |
| 20260905213521 | 72 | 316 | 3.0 | 9.0 | 0.00 | 0.00 | 0.00 | 71 | 1013.2 |
| 20260905212520 | 73 | 36 | 4.0 | 10.0 | 0.00 | 0.00 | 0.00 | 69 | 1013.2 |
| 20260905212020 | 73 | 15 | 4.0 | 10.0 | 0.00 | 0.00 | 0.00 | 68 | 1013.2 |
| 20260905211020 | 73 | 52 | 3.0 | 10.0 | 0.00 | 0.00 | 0.00 | 70 | 1013.1 |
| 20260905210520 | 72 | 270 | 3.0 | 7.0 | 0.00 | 0.00 | 0.00 | 70 | 1013.1 |
| 20260905205516 | 72 | 319 | 4.0 | 9.0 | 0.00 | 0.00 | 0.00 | 68 | 1013.1 |
| 20260905205020 | 73 | 355 | 3.0 | 9.0 | 0.00 | 0.00 | 0.00 | 69 | 1013.0 |
| 20260905204016 | 73 | 47 | 6.0 | 12.0 | 0.00 | 0.00 | 0.00 | 66 | 1013.0 |
| 20260905202523 | 72 | 307 | 2.0 | 9.0 | 0.00 | 0.00 | 0.00 | 70 | 1012.9 |
| 20260905202020 | 72 | 335 | 2.0 | 9.0 | 0.00 | 0.00 | 0.00 | 70 | 1013.0 |
| 20260905201018 | 73 | 5 | 3.0 | 11.0 | 0.00 | 0.00 | 0.00 | 67 | 1012.9 |
| 20260905200518 | 73 | 54 | 5.0 | 11.0 | 0.00 | 0.00 | 0.00 | 66 | 1012.9 |
| 20260905195523 | 72 | 15 | 3.0 | 10.0 | 0.00 | 0.00 | 0.00 | 71 | 1013.0 |
| 20260905195020 | 72 | 12 | 4.0 | 9.0 | 0.00 | 0.00 | 0.00 | 72 | 1013.0 |
| 20260905194020 | 71 | 340 | 4.0 | 10.0 | 0.00 | 0.00 | 0.00 | 71 | 1013.0 |
| 20260905193518 | 71 | 290 | 4.0 | 10.0 | 0.00 | 0.00 | 0.00 | 70 | 1013.1 |
| 20260905192019 | 72 | 35 | 3.0 | 10.0 | 0.00 | 0.00 | 0.00 | 69 | 1013.1 |